CZ-6A DEB, 60987

Orbit data source: Space-Track

CZ-6A DEB, 60987 is space debris in LEO originally from a launch on Tue, 06 Aug 2024 UTC launched from the Taiyaun Space Center, China (TSC). Debris objects in space refer to the collection of defunct objects orbiting the Earth. Examples of debris include non-operational satellites, rocket bodies, and fragments generated from explosions, collisions, or faulty payload assembly.

Loading next visibility...
Identifier
60987, 2024-140MN
Orbit
LEO
Country
Flag of CNCN / PRC
Related business
Manufacturer
SAST
Mission
Spacecraft
Bus & Motor
Unknown
Mass
Unknown
Launch date (UTC)
2024-08-06 (2 years ago)
Launch vehicle
Unknown
Launch site
Taiyaun Space Center, China (TSC)
Object type
Payload
Rocket body
Debris
Shape & HBR
Unknown shape, 0.1 m
Radar Cross Section
Small (<0.1 m²)

Expand to show TLE details & history
Last TLE update: 11 hours ago

TLE from 11 hours ago
0 CZ-6A DEB
1 60987U 24140MN  26118.44116067  .00000146  00000-0  63675-4 0  9990
2 60987  88.9901 280.1217 0050264   5.4247 354.7475 14.18057329 87119
Epoch: 2026-04-28T10:35Z
TLE epoch observation values (Epoch: 2026-04-28T10:35:16.281Z)
Latitude
-0.0001°
Longitude
-95.11257°
Altitude
798.886 km
Speed
7.473 km/s
True Right ascension
18h 40m 29s
True Declination
0° 00' 00"
Sunlit
Object was in daylight at epoch
Visualization orbit readout
Latitude
Unknown
Longitude
Unknown
Altitude
Unknown
Speed
Unknown
Apparent Right ascension
Unknown
Apparent Declination
Unknown
Sunlit
N/A
Visualization observer readout
Local Sidereal Time
05:06:49
Azimuth
Unknown
Elevation
Unknown
Doppler factor
Unknown
Orbital elements
Apogee altitude
865.11 km
Perigee altitude
792.659 km
Semi-major axis
7,207.021 km
Eccentricity
0.00503
Inclination
88.9901°
RAAN
280.1217°
Arg. of periapsis
5.4247°
True anomaly
354.69444°
Mean anomaly
354.7475°
Eccentric anomaly
354.721°
Mean motion
3.54739 °/min
Orbital period
101.48 mins
BSTAR
0.000063675
Loading maneuver chart data...
Computing Atmospheric mass density...
Loading historical data...
Loading historical data...
Loading historical data...
Loading historical data...
Loading historical data...
Loading historical data...
Loading historical data...

Documentation

Showing up to 5 results
|